Find Starlink 5891

NORAD ID: 56351 Int'l Des: 2023-058 Owner: SPXS Country: US Constellation: starlink operational
LEOCIRCULARRETROGRADESSO

Live Position

Loading 3D Globe...

About Starlink 5891

Description loading...

Upcoming Passes

Passes for default location (London). Set your location on the main map for personalized predictions.

Altitude History

Loading altitude history...

Two-Line Element Set

1 56351U 23058AL 26105.62860251 .00000265 00000-0 22604-4 0 9993
2 56351 97.6040 107.6148 0001906 93.3096 266.8349 15.05650557163750
Epoch: Apr 15, 2026 • Age: 8 hours

Current Status

Altitude 578.1 km
Velocity 7.57 km/s
Sub-Earth Point -75.05°S, 74.95°E
Launch Date Apr 27, 2023
Age 2.9 years
Type internet

Technical Details

Classification Payload
Mass 300.00 kg
Dry Mass 260.00 kg
Total Mass 300.00 kg
Length 0.20 m
Diameter 2.80 m
Span 9.00 m
Shape Box + pan
Manufacturer SPXS
Bus Type Starlink
Phase Status In Orbit
Owner/State SPXS/US

Most Searched